TimeCST,TemperatureF,Dew PointF,Humidity,Sea Level PressureIn,VisibilityMPH,Wind Direction,Wind SpeedMPH,Gust SpeedMPH,PrecipitationIn,Events,Conditions,WindDirDegrees,DateUTC
12:00 AM,64.4,55.4,73,29.96,-9999.0,East,9.2,-,N/A,,Clear,100,2006-01-01 06:00:00
1:00 AM,64.4,55.4,73,29.94,-9999.0,East,10.4,-,N/A,,Clear,90,2006-01-01 07:00:00
2:00 AM,66.2,53.6,64,29.93,-9999.0,East,9.2,-,N/A,,Clear,80,2006-01-01 08:00:00
3:00 AM,66.2,55.4,68,29.92,-9999.0,East,11.5,-,N/A,,Clear,100,2006-01-01 09:00:00
4:00 AM,-9999,50.0,N/A,-9999,-9999.0,North,-9999.0,-,N/A,,Unknown,0,2006-01-01 10:00:00
5:00 AM,64.4,53.6,68,-9999,-9999.0,North,5.8,-,N/A,,Clear,10,2006-01-01 11:00:00
6:00 AM,64.4,55.4,73,29.95,-9999.0,East,9.2,-,N/A,,Clear,90,2006-01-01 12:00:00
7:00 AM,69.8,57.2,64,29.97,-9999.0,East,10.4,-,N/A,,Clear,100,2006-01-01 13:00:00
8:00 AM,73.4,57.2,57,29.99,-9999.0,ESE,5.8,-,N/A,,Clear,110,2006-01-01 14:00:00
9:00 AM,76,60,48,29.89,12,East,15.0,,,,Scattered Clouds,100,2006-01-01 15:00:00
9:00 AM,77.0,60.8,57,30.00,6.2,East,15.0,-,N/A,,Partly Cloudy,100,2006-01-01 15:00:00
10:00 AM,77.0,60.8,57,29.99,6.2,ESE,12.7,-,N/A,,Partly Cloudy,110,2006-01-01 16:00:00
11:00 AM,80.6,62.6,54,29.98,6.2,East,11.5,-,N/A,,Partly Cloudy,100,2006-01-01 17:00:00
12:00 PM,82,62,40,29.81,12,East,9.2,,,,Scattered Clouds,90,2006-01-01 18:00:00
12:00 PM,82.4,62.6,51,29.95,6.2,East,9.2,-,N/A,,Partly Cloudy,90,2006-01-01 18:00:00
1:00 PM,80.6,60.8,51,29.92,6.2,ESE,6.9,-,N/A,,Scattered Clouds,110,2006-01-01 19:00:00
1:30 PM,77.0,68.0,74,29.91,6.2,SW,9.2,-,N/A,,Mostly Cloudy,230,2006-01-01 19:30:00
2:00 PM,75.2,66.2,73,29.91,6.2,WSW,11.5,-,N/A,,Mostly Cloudy,240,2006-01-01 20:00:00
3:00 PM,76,69,73,29.79,12,Calm,Calm,,,,Mostly Cloudy,250,2006-01-01 21:00:00
3:00 PM,77.0,69.8,78,29.91,6.2,WSW,10.4,-,N/A,,Mostly Cloudy,250,2006-01-01 21:00:00
4:00 PM,73.4,68.0,83,29.92,6.2,SW,6.9,-,N/A,,Mostly Cloudy,220,2006-01-01 22:00:00
5:00 PM,71.6,66.2,83,29.94,6.2,West,6.9,-,N/A,,Mostly Cloudy,260,2006-01-01 23:00:00
6:00 PM,69,66,89,29.87,12,Calm,Calm,,,,Mostly Cloudy,240,2006-01-02 00:00:00
6:00 PM,69.8,66.2,88,29.97,6.2,WSW,6.9,-,N/A,,Mostly Cloudy,240,2006-01-02 00:00:00
7:00 PM,68.0,66.2,94,29.99,6.2,Calm,Calm,-,N/A,,Scattered Clouds,0,2006-01-02 01:00:00
8:00 PM,68.0,66.2,94,30.01,6.2,WSW,4.6,-,N/A,,Scattered Clouds,250,2006-01-02 02:00:00
9:00 PM,67,66,94,29.90,4,West,3.5,,,,Mist,270,2006-01-02 03:00:00
9:00 PM,66.2,66.2,100,30.02,6.2,West,3.5,-,N/A,,Scattered Clouds,270,2006-01-02 03:00:00
10:00 PM,66.2,64.4,94,30.01,-9999.0,Calm,Calm,-,N/A,,Clear,0,2006-01-02 04:00:00
11:00 PM,68.0,60.8,78,30.00,-9999.0,NE,9.2,-,N/A,,Clear,50,2006-01-02 05:00:00